Tracking 23757 objects as of 26-Oct-2021
HD Live streaming from Space Station
objects crossing your sky now

IRIDIUM 33 DEB

Track IRIDIUM 33 DEB now!
10-day predictions


NORAD ID: 46435
Int'l Code: 1997-051ABN
Perigee: 689.7 km
Apogee: 1,189.0 km
Inclination: 86.3 °
Period: 103.7 minutes
Semi major axis: 7310 km
RCS: Unknown
Launch date: September 14, 1997
Source: United States (US)
Launch site: TYURATAM MISSILE AND SPACE COMPLEX (TTMTR)

Note: This is SATELLITE DEBRIS
aabbcc
Your satellite tracking list
Your tracking list is empty




NASA's NSSDC Master Catalog

Two Line Element Set (TLE):
1 46435U 97051ABN 21298.19108888  .00000812  00000-0  41286-3 0  9994
2 46435  86.2895  94.4771 0341493 285.5794 201.0289 13.88971922383059
Source of the keplerian elements: AFSPC